Regional Weather Roundup
Issued by NWS

Home | Current Version | Previous Version | Text Only | Print | Product List | Glossary Off
Versions: 1 2 3 4 5 6 7 8 9 10 11 12 13 14 15 16 17 18 19 20 21 22 23 24 25 26 27 28 29 30 31 32 33 34 35 36 37 38 39 40 41 42 43 44 45 46 47 48 49 50

000
ASUS43 KLMK 281410
RWRKY
KENTUCKY REGIONAL WEATHER ROUNDUP
NATIONAL WEATHER SERVICE LOUISVILLE KY
1000 AM EDT THU JUL 28 2016

NOTE "FAIR" INDICATES FEW OR NO CLOUDS BELOW 12,000 FEET
WITH NO SIGNIFICANT WEATHER AND/OR OBSTRUCTIONS TO VISIBILITY.

KYZ001>023-026-027-061>063-070>075-281500-
WESTERN AND SOUTH CENTRAL KENTUCKY

CITY           SKY/WX    TMP DP  RH WIND       PRES   REMARKS
PADUCAH        CLOUDY    77  73  87 CALM      29.92S
HENDERSON      NOT AVBL
OWENSBORO      CLOUDY    75  73  93 S7        29.93S
HOPKINSVILLE   LGT RAIN  72  71  99 E5        29.93F FOG
BOWLING GREEN  CLOUDY    75  71  87 CALM      29.94S
GLASGOW        CLOUDY    71  71 100 CALM      29.95S
$$

KYZ024-025-028>034-038-045-046-053-281500-
NORTH CENTRAL KENTUCKY

CITY           SKY/WX    TMP DP  RH WIND       PRES   REMARKS
LOUISVILLE/SDF LGT RAIN  75  72  90 SW6       29.91S
LOUISVILLE/LOU LGT RAIN  75  72  90 SW5       29.92S FOG
FORT KNOX      DRIZZLE   73  71  94 SW3       29.92S
$$

KYZ035>037-039>044-047>052-055>060-089>105-281500-
NORTHEAST KENTUCKY

CITY           SKY/WX    TMP DP  RH WIND       PRES   REMARKS
LEXINGTON      RAIN      71  69  93 NE3       29.94F FOG
COVINGTON      CLOUDY    73  72  96 W7        29.93R
FRANKFORT      RAIN      72  70  93 S6        29.93S FOG
$$

KYZ054-064>069-076>088-106>120-281500-
SOUTHEAST KENTUCKY

CITY           SKY/WX    TMP DP  RH WIND       PRES   REMARKS
JACKSON        CLOUDY    73  70  90 CALM      29.97F
LONDON         CLOUDY    78  69  73 S12       29.96F
SOMERSET       CLOUDY    75  73  94 SW6       29.96S
MIDDLESBORO    CLOUDY    76  72  86 S5        29.99F
MONTICELLO     RAIN     N/A N/A N/A SW14      29.97S
$$





USA.gov is the U.S. government's official web portal to all federal, state and local government web resources and services.